Flag for Germany Past Weather in Buchholz in der Nordheide, Lower Saxony, Germany — Yesterday and Last 2 Weeks

Now
64 °F

Scattered clouds.


Feels Like: 64 °F
Forecast: 59 / 72 °F
Wind: 5 mph from Northwest

Location: Hamburg-Finkenwerder

Current Time: Jun 30, 2016 at 6:02:54 PM

Latest Report: Jun 30, 2016 at 5:20 PM


Visibility: N/A

Pressure: 29.86 "Hg

Humidity: 100%

Dew Point: 64 °F

Location of Buchholz in der NordheideLocation

Past Weather in Buchholz in der Nordheide — Graph

°F

Buchholz in der Nordheide Temperature Yesterday

Maximum temperature yesterday: 68 °F (at 12:50 PM)
Minimum temperature yesterday: 55 °F (at 5:50 AM)
Average temperature yesterday: 64 °F

High & Low Weather Summary for the Past Weeks

 TemperatureHumidityPressure
High90 °F (Jun 23, 5:50 PM)100% (Jun 15, 6:20 PM)30.18 "Hg (Jun 15, 6:20 PM)
Low50 °F (Jun 20, 5:50 AM)41% (Jun 23, 6:20 PM)29.47 "Hg (Jun 15, 4:20 PM)
Average66 °F79%29.93 "Hg
* Reported Jun 15 4:20 PM — Jun 30 4:50 PM, Buchholz in der Nordheide, Weather by CustomWeather, © 2016

Note: Actual official high and low records may vary slightly from our data, if they occured in-between our weather recording intervals... More about our weather records

Advertising

Buchholz in der Nordheide Weather History for the Previous 24 Hours

Scroll right to see more
 ConditionsComfort  
Time TempWeatherWind HumidityBarometerVisibility
4:50 PM
Thu, Jun 30
63 °FSprinkles. Scattered clouds.13 mph100%29.86 "HgN/A
4:20 PM66 °FScattered showers. Broken clouds.8 mph83%29.86 "HgN/A
3:50 PM64 °FScattered showers. Broken clouds.9 mph94%29.86 "HgN/A
3:20 PM66 °FSprinkles. Broken clouds.13 mph78%29.86 "HgN/A
2:50 PM66 °FScattered showers. Broken clouds.15 mph78%29.86 "HgN/A
2:20 PM68 °FBroken clouds.13 mph73%29.86 "HgN/A
1:50 PM66 °FBroken clouds.14 mph78%29.86 "HgN/A
1:20 PM66 °FScattered clouds.14 mph78%29.86 "HgN/A
12:50 PM64 °FLight rain. Broken clouds.10 mph83%29.86 "HgN/A
12:20 PM64 °FLight rain. Scattered clouds.12 mph78%29.86 "HgN/A
11:50 AM64 °FBroken clouds.10 mph78%29.86 "HgN/A
11:20 AM64 °FBroken clouds.12 mph73%29.83 "HgN/A
10:50 AM64 °FBroken clouds.12 mph73%29.86 "HgN/A
10:20 AM64 °FBroken clouds.13 mph73%29.83 "HgN/A
9:50 AM64 °FBroken clouds.13 mph73%29.83 "HgN/A
9:20 AM64 °FSunny.15 mph78%29.83 "Hg10 mi
8:50 AM64 °FPassing clouds.13 mph68%29.83 "HgN/A
8:20 AM63 °FPassing clouds.7 mph68%29.83 "HgN/A
7:50 AM63 °FPassing clouds.5 mph68%29.83 "HgN/A
7:20 AM61 °FPassing clouds.5 mph72%29.83 "HgN/A
6:50 AM61 °FPassing clouds.5 mph72%29.83 "HgN/A
6:20 AM61 °FPassing clouds.5 mph77%29.83 "HgN/A
5:50 AM59 °FClear.3 mph88%29.83 "Hg10 mi
7:50 PM
Wed, Jun 29
66 °FScattered clouds.10 mph68%29.86 "HgN/A
7:20 PM66 °FScattered clouds.12 mph68%29.83 "HgN/A
6:50 PM66 °FScattered clouds.13 mph68%29.83 "HgN/A
6:20 PM66 °FScattered clouds.13 mph64%29.83 "HgN/A
Weather by CustomWeather, © 2016

See weather overviewHow to use our weather pages